Miles City, MT

3:58 PM MDT on June 24, 2017 (GMT -0600)
Wiley

Weather History for KMLS - October, 2010

Change the Weather History Date:

Saturday, October 23, 2010

  Actual Average Record
Temperature  
Mean Temperature 48 °F 44 °F  
Max Temperature 57 °F 56 °F 77 °F (1973)
Min Temperature 39 °F 31 °F 17 °F (1957)
Degree Days  
Heating Degree Days 17 21  
Month to date heating degree days 247 388  
Since 1 July heating degree days 478 624  
Cooling Degree Days 0 0  
Month to date cooling degree days 2 0  
Year to date cooling degree days 609 728  
Moisture  
Dew Point 38 °F    
Average Humidity 70    
Maximum Humidity 85    
Minimum Humidity 55    
Precipitation  
Precipitation 0.00 in 0.02 in 0.20 in (1991)
Month to date precipitation 0.37 0.74  
Year to date precipitation 17.20 11.58  
Sea Level Pressure  
Sea Level Pressure 29.77 in    
Wind  
Wind Speed 8 mph (NE)    
Max Wind Speed 14 mph    
Max Gust Speed 16 mph    
Visibility 10 miles    
Events      
T = Trace of Precipitation, MM = Missing Value Source: NWS Daily Summary

Daily Weather History Graph

Daily Weather History Graph

Search for Another Location

Airport or City:

Trip Planner

Search our weather history database for the weather conditions in past years. The results will help you decide how hot, cold, wet, or windy it might be!

Date:

Astronomy

Oct. 23, 2010 Rise Set
Actual Time 7:32 AM MDT 6:02 PM MDT
Civil Twilight 7:01 AM MDT 6:33 PM MDT
Nautical Twilight 6:26 AM MDT 7:08 PM MDT
Astronomical Twilight 5:51 AM MDT 7:43 PM MDT
Moon 5:59 PM MDT (10/23) 8:22 AM MDT (10/23)
Length of Visible Light 11h 32m
Length of Day
10h 30m
Full, 100% of the Moon is Illuminated
Oct 23
Full
Oct 30
Last Quarter
Nov 5
New
Nov 13
First Quarter
Nov 21
Full

Hourly Weather History & Observations

Time (MDT) Temp. Windchill Dew Point Humidity Pressure Visibility Wind Dir Wind Speed Gust Speed Precip Events Conditions
12:53 AM 45.0 °F 39.7 °F 36.0 °F 71% 29.75 in 10.0 mi NE 10.4 mph - N/A   Clear
1:53 AM 44.1 °F 38.1 °F 36.0 °F 73% 29.75 in 10.0 mi NE 11.5 mph - N/A   Clear
2:53 AM 43.0 °F 38.2 °F 36.0 °F 76% 29.75 in 10.0 mi NNE 8.1 mph - N/A   Clear
3:53 AM 42.1 °F 36.6 °F 36.0 °F 79% 29.75 in 10.0 mi NNE 9.2 mph - N/A   Clear
4:53 AM 43.0 °F 36.4 °F 36.0 °F 76% 29.75 in 10.0 mi NE 12.7 mph - N/A   Clear
5:53 AM 41.0 °F 34.7 °F 36.0 °F 82% 29.77 in 10.0 mi NE 10.4 mph - N/A   Clear
6:53 AM 41.0 °F 34.7 °F 35.1 °F 79% 29.78 in 10.0 mi NE 10.4 mph - N/A   Clear
7:53 AM 39.9 °F 33.4 °F 35.1 °F 83% 29.79 in 10.0 mi NNE 10.4 mph - N/A   Clear
8:53 AM 39.9 °F 33.4 °F 35.1 °F 83% 29.81 in 10.0 mi NNE 10.4 mph - N/A   Clear
9:53 AM 45.0 °F 39.7 °F 37.0 °F 74% 29.81 in 10.0 mi NNE 10.4 mph - N/A   Clear
10:53 AM 50.0 °F - 37.9 °F 63% 29.79 in 10.0 mi NE 5.8 mph - N/A   Clear
11:53 AM 52.0 °F - 39.0 °F 61% 29.79 in 10.0 mi NE 8.1 mph - N/A   Clear
12:53 PM 55.0 °F - 39.0 °F 55% 29.78 in 10.0 mi NNE 8.1 mph - N/A   Clear
1:53 PM 55.9 °F - 39.9 °F 55% 29.77 in 10.0 mi ENE 6.9 mph - N/A   Clear
2:53 PM 55.9 °F - 39.9 °F 55% 29.77 in 10.0 mi ENE 6.9 mph - N/A   Clear
3:53 PM 55.9 °F - 41.0 °F 57% 29.76 in 10.0 mi NE 5.8 mph - N/A   Clear
4:53 PM 55.0 °F - 41.0 °F 59% 29.77 in 10.0 mi North 6.9 mph - N/A   Clear
5:53 PM 51.1 °F - 39.9 °F 66% 29.78 in 10.0 mi NNE 5.8 mph - N/A   Clear
6:53 PM 50.0 °F - 39.9 °F 68% 29.79 in 10.0 mi NE 8.1 mph - N/A   Clear
7:53 PM 48.0 °F - 39.0 °F 71% 29.79 in 10.0 mi NE 9.2 mph - N/A   Mostly Cloudy
8:53 PM 46.0 °F 42.5 °F 37.9 °F 73% 29.79 in 10.0 mi NE 6.9 mph - N/A   Clear
9:53 PM 44.1 °F 40.1 °F 37.9 °F 79% 29.78 in 10.0 mi NNE 6.9 mph - N/A   Partly Cloudy
10:53 PM 42.1 °F 39.2 °F 37.0 °F 82% 29.77 in 10.0 mi NNE 4.6 mph - N/A   Clear
11:53 PM 43.0 °F - 37.0 °F 80% 29.76 in 10.0 mi Calm Calm - N/A   Overcast